Flag for Thailand Weather past 2 weeks in Hat Yai, Thailand

Now
86 °F

Broken clouds.


Feels Like: 99 °F
Forecast: 77 / 93 °F
Wind: 5 mph from Northeast

Location: Hat Yai Airport

Current Time: May 24, 2015 at 5:19:05 PM

Latest Report: May 24, 2015 at 5:00 PM


Visibility: N/A

Pressure: 29.77 "Hg

Humidity: 79%

Dew point: 79 °F

Location of Hat YaiLocation

Historic Weather in Hat Yai — Graph

°F

Hat Yai temperature yesterday

Maximum temperature yesterday: 91 °F (at 2:30 PM)
Minimum temperature yesterday: 77 °F (at 3:00 AM)
Average temperature yesterday: 83 °F

Past Weeks' High & Low Weather Summary

 TemperatureHumidityPressure
High95 °F (May 10, 2:30 PM)100% (May 10, 12:00 AM)29.92 "Hg (May 10, 12:00 AM)
Low75 °F (May 17, 4:00 AM)53% (May 10, 2:00 PM)29.68 "Hg (May 10, 3:30 PM)
Average83 °F83%29.81 "Hg
* Reported May 9 4:00 PM — May 24 4:00 PM, Hat Yai, Weather by CustomWeather, © 2015

Note: Actual official high and low records may vary slightly from our data, if they occured in-between our weather recording intervals... More about our weather records

Advertising

Hat Yai weather history for previous 24 hours

 ConditionsComfort  
Time TempWeatherWind HumidityBarometerVisibility
4:00 PM
Sun, May 24
84 °FBroken clouds.6 mph79%29.77 "HgN/A
3:30 PM86 °FLight rain. Broken clouds.5 mph75%29.77 "HgN/A
3:00 PM88 °FBroken clouds.5 mph70%29.74 "HgN/A
2:30 PM91 °FScattered showers. Broken clouds.3 mph63%29.77 "HgN/A
2:00 PM91 °FScattered showers. Broken clouds.5 mph63%29.77 "HgN/A
1:30 PM93 °FBroken clouds.No wind56%29.80 "HgN/A
1:00 PM95 °FBroken clouds.6 mph53%29.80 "HgN/A
12:30 PM93 °FBroken clouds.3 mph56%29.80 "HgN/A
12:00 PM91 °FBroken clouds.No wind63%29.83 "HgN/A
11:30 AM91 °FBroken clouds.2 mph63%29.83 "HgN/A
11:00 AM91 °FPartly sunny.8 mph63%29.83 "HgN/A
10:30 AM91 °FPartly sunny.5 mph63%29.86 "HgN/A
9:30 AM88 °FPartly sunny.5 mph70%29.86 "HgN/A
9:00 AM86 °FPartly sunny.3 mph79%29.86 "HgN/A
8:30 AM84 °FScattered clouds.3 mph84%29.86 "HgN/A
8:00 AM81 °FScattered clouds.2 mph94%29.83 "HgN/A
7:30 AM79 °FScattered clouds.No wind94%29.83 "HgN/A
7:00 AM77 °FScattered clouds.2 mph100%29.83 "Hg6 mi
6:30 AM77 °FPartly sunny.2 mph94%29.80 "Hg5 mi
6:00 AM77 °FPartly sunny.2 mph94%29.80 "Hg4 mi
5:30 AM77 °FPartly cloudy.2 mph100%29.80 "Hg5 mi
5:00 AM77 °FPartly cloudy.2 mph94%29.80 "Hg6 mi
4:00 AM77 °FPassing clouds.2 mph100%29.80 "HgN/A
3:30 AM77 °FPassing clouds.3 mph100%29.80 "HgN/A
3:00 AM79 °FPassing clouds.2 mph94%29.80 "HgN/A
2:30 AM79 °FPassing clouds.No wind94%29.80 "HgN/A
2:00 AM79 °FPassing clouds.No wind94%29.80 "HgN/A
1:30 AM79 °FPassing clouds.No wind94%29.83 "HgN/A
1:00 AM79 °FPassing clouds.2 mph94%29.83 "HgN/A
12:30 AM79 °FPassing clouds.No wind94%29.83 "HgN/A
12:00 AM81 °FPassing clouds.2 mph89%29.83 "HgN/A
11:30 PM
Sat, May 23
81 °FPassing clouds.3 mph89%29.86 "HgN/A
11:00 PM81 °FPassing clouds.3 mph89%29.86 "HgN/A
10:30 PM81 °FPassing clouds.5 mph89%29.86 "HgN/A
10:00 PM82 °FPassing clouds.3 mph79%29.83 "HgN/A
9:30 PM82 °FPartly cloudy.5 mph84%29.83 "HgN/A
9:00 PM82 °FPartly cloudy.5 mph84%29.83 "HgN/A
8:30 PM82 °FPartly cloudy.5 mph84%29.83 "HgN/A
8:00 PM84 °FPartly cloudy.3 mph79%29.80 "HgN/A
7:30 PM84 °FPartly cloudy.5 mph79%29.80 "HgN/A
7:00 PM84 °FPartly cloudy.3 mph79%29.80 "HgN/A
6:30 PM86 °FPassing clouds.5 mph79%29.77 "HgN/A
6:00 PM86 °FPartly sunny.5 mph75%29.77 "HgN/A
5:30 PM88 °FPartly sunny.7 mph70%29.77 "HgN/A
5:00 PM88 °FPartly sunny.5 mph70%29.77 "HgN/A
Weather by CustomWeather, © 2015

See weather overviewHow to use our weather pages